TimeCEST,TemperatureF,Dew PointF,Humidity,Sea Level PressureIn,VisibilityMPH,Wind Direction,Wind SpeedMPH,Gust SpeedMPH,PrecipitationIn,Events,Conditions,WindDirDegrees,DateUTC
12:20 AM,68.0,51.8,56,30.21,-9999.0,North,3.5,-,N/A,,Clear,10,2011-09-30 22:20:00
12:50 AM,68.0,51.8,56,30.21,-9999.0,NNW,5.8,-,N/A,,Clear,340,2011-09-30 22:50:00
1:20 AM,68.0,50.0,52,30.21,-9999.0,NNE,4.6,-,N/A,,Clear,20,2011-09-30 23:20:00
1:50 AM,66.2,50.0,56,30.21,-9999.0,NNE,3.5,-,N/A,,Clear,30,2011-09-30 23:50:00
2:00 AM,67,50,44,30.23,12,North,4.6,,,,,0,2011-10-01 00:00:00
2:20 AM,66.2,50.0,56,30.21,-9999.0,North,4.6,-,N/A,,Clear,360,2011-10-01 00:20:00
2:50 AM,66.2,50.0,56,30.21,-9999.0,North,5.8,-,N/A,,Clear,360,2011-10-01 00:50:00
3:20 AM,66.2,51.8,60,30.21,-9999.0,NNE,6.9,-,N/A,,Clear,20,2011-10-01 01:20:00
3:50 AM,64.4,50.0,59,30.21,-9999.0,Variable,2.3,-,N/A,,Clear,0,2011-10-01 01:50:00
4:20 AM,62.6,50.0,63,30.21,-9999.0,NNW,4.6,-,N/A,,Clear,340,2011-10-01 02:20:00
4:50 AM,64.4,51.8,64,30.18,-9999.0,NNW,5.8,-,N/A,,Clear,340,2011-10-01 02:50:00
5:00 AM,64,51,52,30.21,12,North,4.6,,,,,350,2011-10-01 03:00:00
5:20 AM,64.4,51.8,64,30.21,-9999.0,NNW,3.5,-,N/A,,Clear,330,2011-10-01 03:20:00
5:50 AM,62.6,51.8,68,30.18,-9999.0,NW,4.6,-,N/A,,Clear,320,2011-10-01 03:50:00
6:20 AM,64.4,51.8,64,30.21,-9999.0,Variable,2.3,-,N/A,,Clear,0,2011-10-01 04:20:00
6:50 AM,60.8,51.8,72,30.21,-9999.0,NW,5.8,-,N/A,,Clear,310,2011-10-01 04:50:00
7:20 AM,64.4,51.8,64,30.21,-9999.0,NNW,4.6,-,N/A,,Clear,330,2011-10-01 05:20:00
7:50 AM,66.2,53.6,64,30.21,-9999.0,Calm,Calm,-,N/A,,Clear,0,2011-10-01 05:50:00
8:20 AM,68.0,53.6,60,30.21,-9999.0,Variable,2.3,-,N/A,,Clear,0,2011-10-01 06:20:00
8:50 AM,69.8,51.8,53,30.21,-9999.0,NNW,3.5,-,N/A,,Clear,340,2011-10-01 06:50:00
9:20 AM,73.4,50.0,44,30.24,-9999.0,ENE,3.5,-,N/A,,Clear,60,2011-10-01 07:20:00
9:50 AM,75.2,50.0,41,30.24,-9999.0,Variable,4.6,-,N/A,,Clear,0,2011-10-01 07:50:00
10:20 AM,77.0,46.4,34,30.24,-9999.0,NNE,5.8,-,N/A,,Clear,30,2011-10-01 08:20:00
10:50 AM,77.0,46.4,34,30.21,-9999.0,NE,5.8,-,N/A,,Clear,40,2011-10-01 08:50:00
11:00 AM,,,,,12,Calm,Calm,,,,,,2011-10-01 09:00:00
11:20 AM,78.8,46.4,32,30.21,-9999.0,NNE,4.6,-,N/A,,Clear,30,2011-10-01 09:20:00
11:50 AM,80.6,46.4,30,30.21,-9999.0,NNE,4.6,-,N/A,,Clear,20,2011-10-01 09:50:00
12:20 PM,80.6,46.4,30,30.21,-9999.0,Variable,4.6,-,N/A,,Clear,0,2011-10-01 10:20:00
12:50 PM,82.4,46.4,28,30.21,-9999.0,Variable,2.3,-,N/A,,Clear,0,2011-10-01 10:50:00
1:20 PM,82.4,48.2,30,30.18,-9999.0,NW,4.6,-,N/A,,Clear,310,2011-10-01 11:20:00
1:50 PM,82.4,46.4,28,30.18,-9999.0,SSW,6.9,-,N/A,,Clear,200,2011-10-01 11:50:00
2:00 PM,82,47,19,30.18,12,South,8.1,,,,,180,2011-10-01 12:00:00
2:20 PM,82.4,48.2,30,30.18,-9999.0,South,6.9,-,N/A,,Clear,190,2011-10-01 12:20:00
2:50 PM,82.4,50.0,32,30.18,-9999.0,South,8.1,-,N/A,,Clear,170,2011-10-01 12:50:00
3:20 PM,80.6,48.2,32,30.18,-9999.0,South,9.2,-,N/A,,Clear,190,2011-10-01 13:20:00
3:50 PM,80.6,51.8,37,30.15,-9999.0,South,8.1,-,N/A,,Clear,180,2011-10-01 13:50:00
4:20 PM,80.6,53.6,39,30.15,-9999.0,South,8.1,-,N/A,,Clear,180,2011-10-01 14:20:00
4:50 PM,78.8,53.6,42,30.15,-9999.0,South,6.9,-,N/A,,Clear,180,2011-10-01 14:50:00
5:00 PM,79,53,29,30.17,12,SSW,5.8,,,,,210,2011-10-01 15:00:00
5:20 PM,78.8,51.8,39,30.15,-9999.0,South,6.9,-,N/A,,Clear,190,2011-10-01 15:20:00
5:50 PM,78.8,51.8,39,30.18,-9999.0,South,4.6,-,N/A,,Clear,190,2011-10-01 15:50:00
6:20 PM,77.0,51.8,41,30.18,-9999.0,WNW,5.8,-,N/A,,Clear,290,2011-10-01 16:20:00
6:50 PM,75.2,51.8,44,30.18,-9999.0,WNW,5.8,-,N/A,,Clear,300,2011-10-01 16:50:00
7:20 PM,73.4,53.6,50,30.18,-9999.0,NW,6.9,-,N/A,,Clear,310,2011-10-01 17:20:00
7:50 PM,73.4,55.4,53,30.18,-9999.0,North,3.5,-,N/A,,Clear,350,2011-10-01 17:50:00
8:00 PM,73,57,48,30.19,6,NNW,4.6,,,,,340,2011-10-01 18:00:00
8:20 PM,71.6,57.2,60,30.18,-9999.0,Variable,2.3,-,N/A,,Clear,0,2011-10-01 18:20:00
8:50 PM,71.6,57.2,60,30.18,-9999.0,NNW,3.5,-,N/A,,Clear,340,2011-10-01 18:50:00
9:20 PM,71.6,57.2,60,30.18,-9999.0,North,3.5,-,N/A,,Clear,10,2011-10-01 19:20:00
9:50 PM,69.8,57.2,64,30.21,-9999.0,Variable,2.3,-,N/A,,Clear,0,2011-10-01 19:50:00
10:20 PM,69.8,55.4,60,30.18,-9999.0,North,3.5,-,N/A,,Clear,360,2011-10-01 20:20:00
10:50 PM,73.4,53.6,50,30.21,-9999.0,NE,8.1,-,N/A,,Clear,50,2011-10-01 20:50:00
11:00 PM,72,55,45,30.21,6,NE,8.1,,,,,40,2011-10-01 21:00:00
11:20 PM,69.8,55.4,60,30.21,-9999.0,NE,8.1,-,N/A,,Clear,50,2011-10-01 21:20:00
11:50 PM,69.8,55.4,60,30.21,-9999.0,North,4.6,-,N/A,,Clear,10,2011-10-01 21:50:00